Home   Weather   Knoxville   Past weeks

Flag for USA Past Weather in Knoxville, Tennessee, USA — Yesterday and Last 2 Weeks

Now
50 °F

Light rain. Fog.


Feels Like: 47 °F
Forecast: 47 / 57 °F
Wind: 8 mph from North

Location: McGhee Tyson Airport

Current Time: Dec 6, 2016 at 7:23:11 am

Latest Report: Dec 6, 2016 at 6:53 am


Visibility: 3 mi

Pressure: 29.69 "Hg

Humidity: 93%

Dew Point: 48 °F

Location of KnoxvilleLocation

Past Weather in Knoxville — Graph

°F

Knoxville Temperature Yesterday

Maximum temperature yesterday: 52 °F (at 1:53 pm)
Minimum temperature yesterday: 46 °F (at 12:53 am)
Average temperature yesterday: 49 °F

High & Low Weather Summary for the Past Weeks

 TemperatureHumidityPressure
High73 °F (Nov 29, 3:53 pm)100% (Nov 25, 10:53 am)30.40 "Hg (Nov 25, 10:53 am)
Low26 °F (Nov 21, 6:53 am)18% (Nov 21, 3:53 pm)29.59 "Hg (Nov 28, 11:53 pm)
Average48 °F68%30.09 "Hg
* Reported Nov 21 5:53 am — Dec 6 5:59 am, Knoxville, Weather by CustomWeather, © 2016

Note: Actual official high and low records may vary slightly from our data, if they occured in-between our weather recording intervals... More about our weather records

Advertising

Knoxville Weather History for the Previous 24 Hours

Scroll right to see more
 ConditionsComfort  
Time TempWeatherWind HumidityBarometerVisibility
5:59 am
Tue, Dec 6
49 °FLight rain. Fog.8 mph97%29.69 "Hg4 mi
4:53 am49 °FRain. Fog.5 mph93%29.72 "Hg3 mi
3:56 am49 °FRain. Fog.3 mph93%29.77 "Hg3 mi
2:53 am49 °FLight rain. Fog.3 mph93%29.78 "Hg4 mi
1:53 am49 °FLight rain. Passing clouds.6 mph90%29.75 "Hg10 mi
1:01 am48 °FLight rain. Overcast.7 mph93%29.79 "Hg10 mi
11:53 pm
Mon, Dec 5
49 °FLight rain. Low clouds.6 mph90%29.81 "Hg10 mi
10:53 pm49 °FMostly cloudy.9 mph86%29.83 "Hg10 mi
9:53 pm49 °FLight rain. Mostly cloudy.12 mph90%29.83 "Hg10 mi
8:53 pm49 °FLight rain. Mostly cloudy.7 mph93%29.87 "Hg10 mi
7:53 pm50 °FLight rain. Mostly cloudy.6 mph89%29.92 "Hg10 mi
6:53 pm50 °FLight rain. Mostly cloudy.6 mph89%29.91 "Hg10 mi
5:53 pm50 °FLight rain. Mostly cloudy.8 mph89%29.92 "Hg10 mi
4:53 pm51 °FLight rain. More clouds than sun.7 mph86%29.92 "Hg10 mi
3:53 pm51 °FLight rain. Overcast.7 mph83%29.94 "Hg7 mi
2:53 pm52 °FOvercast.7 mph80%29.95 "Hg10 mi
1:53 pm52 °FOvercast.10 mph80%29.97 "Hg10 mi
12:53 pm51 °FOvercast.12 mph83%29.99 "Hg7 mi
10:53 am50 °FMostly cloudy.8 mph89%30.05 "Hg2 mi
9:53 am48 °FDrizzle. Fog.7 mph93%30.04 "Hg2 mi
8:53 am47 °FFog.7 mph93%30.02 "Hg2 mi
7:53 am47 °FFog.6 mph93%30.02 "Hg2 mi
Weather by CustomWeather, © 2016

See weather overviewHow to use our weather pages